Theta_e
326 326 326 326 326 327 325 323 323 323 329 339 335 326 330 331 323 325 334 345 352 349 345 345 343 343 341 341 346 348 348 349 347 348 350 351 350 348 344 342 340 338 338 337 337 338 336 334 333 333 332 331 330 329 328 326 324 323 323 324 324 324 326
325 322 325 326 322 325 330 324 325 326 323 333 334 327 331 329 323 331 338 346 353 343 339 350 351 348 346 343 344 345 345 347 346 347 350 350 350 347 344 342 340 339 338 337 338 337 334 333 333 333 332 331 329 328 327 324 324 324 325 325 325 325 328
327 328 328 327 324 323 327 326 324 325 324 327 326 326 330 323 321 331 335 341 347 342 347 361 361 357 351 345 344 344 343 344 344 346 349 349 349 347 344 343 341 339 338 338 338 336 333 333 333 332 332 330 328 327 325 323 324 325 326 326 326 327 329
326 333 331 328 327 322 322 327 326 327 332 333 326 325 329 325 323 329 332 338 345 349 358 368 366 361 351 344 346 345 342 342 344 346 347 349 349 346 344 342 339 339 338 338 337 334 332 332 332 332 331 330 328 325 323 324 325 326 327 327 327 328 330
324 331 331 330 332 328 325 326 327 328 328 327 325 323 326 329 331 333 332 331 338 351 358 362 364 358 346 343 345 343 341 342 344 345 347 348 347 344 343 341 339 339 339 337 335 332 332 333 333 332 331 330 328 325 324 326 327 328 329 328 326 327 328
324 331 332 328 329 331 331 328 328 329 327 326 326 323 324 328 330 336 335 326 331 351 354 355 358 349 340 341 341 340 341 341 342 345 347 347 345 343 342 340 338 339 338 335 332 331 332 333 333 332 331 329 328 325 325 327 328 329 329 327 324 325 325
334 331 327 323 324 329 333 330 328 331 332 333 331 327 327 325 322 330 333 325 332 350 347 345 347 339 336 338 338 339 340 340 342 343 344 344 343 342 341 339 338 339 337 334 331 331 332 333 333 332 331 330 328 326 326 326 327 327 326 324 321 322 323
350 336 330 327 327 330 330 329 328 329 332 335 336 337 336 327 322 327 327 323 333 346 341 334 335 334 336 337 337 339 338 340 342 341 342 342 341 342 340 339 339 338 335 333 331 332 333 332 333 332 331 330 329 327 325 324 324 324 323 321 320 323 323
341 336 334 333 334 335 334 334 331 329 333 331 330 333 330 325 327 330 325 325 336 348 344 339 338 337 338 336 336 339 338 339 341 339 340 341 339 341 341 338 339 336 333 332 331 331 332 332 333 331 330 330 329 326 324 322 321 322 321 320 321 323 323
327 327 329 333 340 337 332 335 331 329 332 329 329 330 323 324 330 328 329 333 337 345 349 348 346 343 341 338 334 336 338 338 340 339 340 339 340 341 340 338 336 334 332 332 331 332 332 332 332 331 330 330 328 325 324 322 322 321 320 320 322 323 322
327 334 339 342 346 337 330 333 332 330 332 331 333 332 325 331 332 329 340 342 329 334 348 351 352 346 342 340 335 333 337 337 338 339 338 339 341 340 340 337 335 334 333 331 331 332 333 333 331 330 330 329 327 327 324 322 322 321 321 322 322 322 321
332 344 348 342 340 335 334 335 330 331 334 330 331 331 329 335 329 329 353 354 329 329 343 350 357 352 342 339 334 333 335 336 337 339 338 339 340 339 338 335 334 333 332 331 332 332 332 332 330 329 329 328 328 327 326 323 322 322 322 323 322 320 320
338 340 340 339 338 333 337 338 333 332 334 329 329 336 339 337 328 328 351 354 338 335 342 344 348 347 340 337 334 333 335 336 337 337 338 339 339 338 337 335 334 333 331 331 332 333 332 331 329 329 328 329 328 328 326 324 322 322 323 323 321 321 320
334 336 335 336 333 330 332 335 334 333 333 331 330 337 342 335 330 334 341 343 341 338 337 337 333 331 332 333 333 334 333 334 336 337 337 338 337 337 336 334 333 331 331 332 332 333 332 329 328 329 328 328 328 326 326 324 322 322 323 323 322 321 322
328 334 335 331 331 332 331 333 338 335 330 330 328 332 337 333 333 339 335 334 341 336 328 328 325 326 331 332 331 332 333 334 336 336 338 338 337 337 336 334 332 332 332 332 333 332 330 328 328 328 328 327 326 325 324 324 323 323 323 323 322 322 323
327 331 331 333 334 332 329 331 340 339 332 332 330 331 338 338 335 338 332 331 343 341 330 327 328 327 329 330 329 331 332 334 336 337 337 337 337 337 335 333 332 331 332 333 332 331 329 327 328 328 327 325 324 324 324 323 324 323 323 323 323 323 325
331 334 333 336 334 328 329 336 343 342 337 337 333 332 340 341 333 333 332 332 343 346 337 339 340 332 328 329 331 331 332 333 336 337 338 338 337 336 334 332 331 331 332 332 331 329 328 328 328 326 325 324 324 325 324 324 324 323 323 324 323 323 326
334 339 337 333 328 326 334 345 348 342 337 337 335 332 340 342 336 337 337 336 343 347 342 347 346 336 332 330 330 332 333 334 335 336 338 338 336 335 332 331 331 331 331 331 330 329 328 327 326 324 324 324 325 325 325 324 324 324 323 324 324 325 326
334 336 333 328 329 337 347 348 344 338 332 333 335 337 343 343 339 341 340 336 340 340 335 334 332 330 331 330 330 332 331 333 335 336 337 337 335 333 331 331 331 331 331 331 330 328 327 326 325 323 323 325 325 325 326 325 324 324 324 324 325 326 327
333 331 331 331 335 346 349 342 338 334 330 330 330 334 346 352 347 344 345 343 338 329 326 329 329 329 330 330 330 331 330 332 334 335 336 335 332 332 332 331 331 331 330 330 328 328 327 326 324 323 323 325 325 325 325 325 324 324 323 324 325 326 327
335 337 335 333 333 336 338 338 337 333 331 336 336 331 343 358 349 339 347 354 344 330 327 330 330 329 331 333 332 331 331 332 333 333 333 332 331 332 333 332 331 330 329 329 328 327 327 325 324 324 323 325 326 325 325 325 324 324 324 323 323 324 327
339 342 333 330 329 331 340 348 343 330 324 334 337 330 340 357 342 327 339 354 345 332 328 329 330 331 338 345 340 332 330 332 332 332 332 332 332 333 332 331 331 329 329 328 328 327 327 325 325 324 324 325 326 325 325 325 324 324 324 323 322 324 325
336 333 327 330 330 330 343 353 342 327 322 327 330 326 338 352 335 323 333 341 334 330 328 328 332 337 347 355 344 332 331 333 332 332 332 333 333 333 332 331 330 329 329 329 328 327 326 326 325 325 325 325 325 326 326 325 324 324 323 322 323 324 325
334 330 328 333 331 332 346 351 336 325 324 326 325 327 337 343 330 325 332 332 329 330 329 328 335 341 348 351 338 331 332 333 332 333 333 332 332 331 331 331 330 329 329 328 328 327 326 326 325 325 326 326 326 327 326 325 325 324 323 323 323 324 326
335 331 329 329 331 337 345 341 328 323 325 325 325 329 336 335 328 329 333 331 331 332 329 330 335 336 336 337 333 331 333 332 332 333 332 331 331 330 330 330 329 329 329 328 328 328 327 326 326 326 327 327 327 327 327 326 325 324 323 323 323 324 324
332 334 332 328 331 337 333 327 325 324 325 329 331 332 330 327 328 332 332 331 332 332 331 332 333 331 331 332 332 332 332 331 332 332 331 331 330 329 329 329 329 329 330 329 328 328 327 327 326 327 328 328 329 328 327 326 324 323 323 323 323 324 324
329 330 330 329 334 336 326 325 329 327 327 333 334 329 327 328 331 332 332 332 333 332 332 332 331 331 331 330 331 331 330 331 331 330 330 330 329 329 330 329 329 330 330 329 329 328 327 327 327 328 328 329 330 329 327 325 323 322 322 323 323 324 323
328 329 333 333 335 332 326 327 332 330 328 329 329 327 329 331 331 331 332 333 332 332 333 332 330 331 330 329 330 330 330 331 330 330 330 328 328 328 328 328 329 329 329 329 329 328 327 327 327 328 328 329 330 328 325 322 321 321 321 322 323 324 323
332 334 337 335 329 325 325 327 329 328 327 327 327 329 331 330 331 332 333 332 332 333 332 331 330 330 329 329 329 329 329 329 329 329 328 327 327 328 327 328 329 329 329 330 328 328 327 327 327 327 328 328 328 325 322 320 320 320 320 321 323 323 323
332 328 328 327 325 325 326 326 326 327 328 328 328 329 330 330 331 332 331 331 331 331 330 330 330 329 329 328 328 328 328 328 327 327 327 327 327 327 328 328 329 329 330 330 328 327 327 326 327 327 327 327 325 322 320 319 319 320 320 322 323 324 323
330 331 334 330 326 325 325 326 328 328 329 329 329 329 330 330 330 330 330 330 330 330 330 330 329 328 328 327 327 328 327 327 327 327 327 327 327 327 327 328 328 329 329 329 329 327 326 326 327 326 326 326 323 321 320 319 320 320 321 322 323 323 323
329 333 334 327 323 324 325 327 329 329 328 329 329 328 329 330 328 328 329 329 329 330 329 328 327 326 326 325 325 326 326 324 324 324 325 325 326 326 326 327 327 327 328 328 328 327 326 326 326 326 326 324 322 320 321 320 320 321 321 323 323 323 322
333 332 327 324 326 329 327 326 329 330 329 329 328 327 328 328 327 327 327 327 328 328 326 325 324 323 323 323 323 323 323 323 323 323 324 325 325 325 326 325 326 327 327 327 327 326 325 325 326 327 326 323 321 321 322 321 321 321 322 322 323 322 322
334 334 328 327 330 332 330 327 328 330 329 328 328 326 327 327 326 327 327 325 325 324 323 324 323 322 322 323 322 322 322 323 323 324 324 324 325 325 325 325 325 325 325 325 325 325 324 325 326 326 325 323 322 322 322 322 322 322 322 322 322 322 322
328 327 324 323 325 329 328 326 327 329 328 327 327 326 327 326 326 326 325 324 323 323 322 323 323 323 323 323 322 323 323 323 323 324 323 323 323 323 323 324 324 324 324 324 324 324 324 325 326 326 324 323 323 323 323 323 323 322 322 322 322 322 322
323 322 321 322 322 324 325 325 328 328 326 326 326 325 325 325 325 324 324 324 324 323 323 323 323 323 323 323 323 323 323 322 323 323 322 323 324 324 323 324 324 324 324 323 324 324 324 325 326 326 325 325 325 325 324 324 324 324 323 323 322 323 322
321 321 322 323 323 323 324 326 326 326 325 326 326 324 325 325 324 324 324 324 324 323 323 323 323 323 323 323 323 323 323 323 322 322 323 324 324 324 323 323 323 324 324 324 323 324 324 325 326 326 326 326 325 325 325 325 325 325 324 323 322 321 320
Wind_Speed
3 2 3 3 3 3 2 2 2 3 3 7 6 2 0 4 2 2 2 3 4 4 4 4 4 1 3 9 16 20 24 27 27 29 33 35 36 35 32 30 27 24 21 19 17 15 13 13 13 11 10 10 12 14 17 18 18 18 19 19 18 17 17
2 3 7 8 6 3 4 3 4 4 3 5 5 2 3 5 1 3 2 3 5 3 2 5 5 1 4 5 9 14 20 24 27 31 35 37 37 36 33 31 28 24 21 19 18 16 14 14 13 11 10 11 13 16 17 18 18 18 19 19 18 17 16
1 4 7 6 7 6 4 6 5 4 4 2 2 3 2 2 0 3 4 4 3 2 3 5 4 6 7 6 7 10 15 23 28 31 35 37 37 37 35 32 29 25 22 20 19 16 14 14 13 11 11 12 14 16 17 17 18 18 19 20 18 16 15
2 4 3 2 1 6 6 5 4 3 3 4 2 2 3 3 2 2 3 4 3 5 6 5 7 9 9 9 9 10 16 26 31 33 36 38 39 39 37 33 30 26 23 21 19 16 15 14 13 12 11 12 15 15 17 17 17 17 19 19 17 15 15
1 1 2 6 6 3 3 3 1 1 2 2 2 1 2 3 4 3 1 2 5 7 5 7 10 9 10 13 12 12 19 28 32 35 38 40 41 40 37 34 29 26 23 21 19 17 16 15 15 13 11 13 14 15 16 15 16 17 18 18 16 14 14
3 4 5 5 7 6 6 5 4 4 4 4 3 1 2 1 3 4 4 2 8 7 4 7 9 6 10 15 15 14 20 28 32 36 39 40 41 40 36 33 28 25 24 21 18 17 17 17 17 13 11 13 14 14 15 15 16 17 18 17 15 13 13
5 6 7 2 4 5 6 3 3 5 4 5 6 2 4 0 2 2 4 2 7 6 4 5 6 6 12 18 19 17 21 29 33 36 37 38 38 37 34 31 27 25 24 20 18 17 18 19 16 12 12 13 14 13 14 15 16 17 18 17 15 13 13
4 5 5 3 4 5 5 1 2 5 3 3 5 4 4 4 2 2 2 2 7 6 4 4 6 8 12 17 21 22 23 27 31 32 33 34 34 33 32 29 26 26 24 20 18 18 20 18 14 11 12 13 13 13 14 16 17 18 18 17 15 13 12
4 5 5 5 4 1 3 1 1 3 5 6 4 2 3 2 4 5 4 4 7 6 4 4 4 6 9 15 23 25 25 26 28 30 31 32 32 31 30 28 27 26 23 19 18 19 19 16 12 11 12 12 13 13 14 15 17 18 18 17 14 12 11
3 3 3 3 2 1 1 1 2 2 5 7 4 3 4 2 3 4 5 5 7 7 6 5 4 5 8 13 19 23 25 25 27 30 31 31 31 31 31 29 28 26 21 19 18 19 18 14 11 10 11 12 12 13 14 15 16 18 17 15 13 12 11
9 8 7 6 3 3 2 2 4 3 3 5 5 5 4 4 4 3 6 6 4 9 8 5 5 7 9 11 15 22 26 25 26 29 31 31 31 32 32 30 28 24 21 19 19 19 17 12 10 9 10 12 13 14 14 14 16 17 15 13 12 11 11
7 6 4 2 3 4 5 5 4 3 3 5 6 4 4 5 5 5 9 6 5 8 9 8 9 9 9 10 16 24 27 27 29 29 29 30 31 32 32 30 27 24 21 20 20 19 15 11 10 9 10 12 13 13 13 13 15 15 13 11 11 11 11
1 2 1 1 2 2 3 6 5 4 5 6 6 6 6 7 6 8 7 7 8 9 9 10 11 11 13 16 19 22 23 25 27 28 29 31 33 34 33 30 27 24 22 21 21 18 14 11 9 9 12 13 13 13 12 12 14 14 12 10 9 9 9
3 1 3 2 2 2 1 3 5 5 6 8 8 6 6 8 7 8 4 6 9 10 9 12 11 11 15 17 17 18 21 24 26 28 31 34 35 36 34 30 27 24 22 22 20 17 14 10 8 10 13 13 12 12 11 12 13 13 12 11 9 9 8
1 2 1 2 2 4 4 3 3 3 3 5 5 4 3 4 6 8 3 4 8 9 10 12 12 10 12 14 16 20 23 25 28 31 33 35 37 36 33 30 27 24 23 22 20 17 13 9 8 12 12 12 11 11 11 11 11 11 12 12 11 9 8
4 4 2 1 3 2 1 4 6 5 3 3 4 3 4 5 4 4 2 3 7 7 5 6 8 8 12 14 17 21 23 26 31 33 35 37 38 36 33 30 27 25 24 23 20 17 11 8 10 12 11 10 10 10 10 10 9 11 13 14 12 11 9
4 5 1 2 4 2 3 6 7 7 4 4 3 2 5 6 5 4 4 6 7 5 2 3 5 6 9 15 20 23 24 29 33 35 37 39 38 36 33 31 28 26 24 23 19 14 9 9 10 11 10 9 9 8 8 8 9 11 13 14 14 13 11
4 6 4 5 1 3 6 6 6 7 5 6 5 5 8 7 5 4 5 7 6 5 4 6 7 8 11 17 23 26 28 31 33 34 37 39 37 34 33 31 28 25 23 22 18 12 9 10 10 10 10 9 8 7 7 8 9 11 13 14 15 15 14
2 1 5 2 5 7 6 6 3 3 3 6 7 6 8 8 7 6 7 9 9 8 8 8 8 10 11 12 16 22 27 31 34 36 38 38 35 34 33 30 26 24 23 21 16 12 10 10 10 10 9 7 7 8 7 8 9 11 13 15 16 16 16
2 2 3 4 7 6 6 7 3 2 1 2 3 5 8 7 8 6 7 10 9 6 8 9 8 7 6 6 9 16 22 29 34 37 37 34 32 32 30 27 24 23 22 18 14 12 11 11 11 9 7 7 8 8 8 8 9 11 13 15 17 17 17
3 3 3 3 4 5 5 5 3 4 3 5 5 3 7 7 7 9 6 7 5 3 4 5 4 4 3 2 5 12 19 26 30 31 29 27 27 27 25 22 21 19 16 13 12 12 13 13 12 8 6 8 10 10 9 10 10 11 14 16 17 18 18
3 4 0 3 3 4 5 8 8 4 3 6 8 3 5 7 8 13 9 5 5 5 5 8 10 8 4 3 5 11 18 23 27 28 26 24 22 21 20 20 18 16 13 12 13 14 15 15 13 9 8 10 12 12 11 11 11 12 15 16 16 17 17
3 4 2 3 4 5 7 10 10 5 6 9 8 3 6 7 9 14 10 6 8 9 11 14 12 7 3 4 8 14 20 23 28 28 24 21 19 18 17 16 15 15 14 15 16 17 18 17 14 11 11 12 13 14 14 12 12 14 16 15 15 15 15
3 4 3 3 4 5 7 10 9 5 11 11 5 2 8 7 8 13 13 12 13 15 17 16 10 6 4 4 8 17 23 24 26 24 19 16 16 15 15 14 14 14 15 16 18 20 19 16 13 12 14 15 16 16 15 13 14 16 16 15 14 15 15
4 4 4 3 4 5 7 9 7 11 12 6 3 6 8 7 10 13 15 16 17 20 21 18 12 9 4 1 6 17 21 20 21 20 17 15 13 12 13 15 16 16 17 19 20 20 19 15 13 13 15 17 18 17 17 16 17 17 15 14 15 17 16
3 4 4 3 5 7 8 6 6 11 9 3 7 8 6 9 14 14 14 16 18 21 24 21 16 11 7 7 10 16 16 16 17 17 17 15 14 13 15 16 17 18 19 21 21 21 19 16 14 14 16 18 19 18 18 18 18 17 15 16 17 16 16
3 1 1 1 5 6 7 8 5 5 6 6 7 8 7 9 14 15 15 17 19 21 23 20 15 12 9 8 10 12 13 14 14 15 16 15 14 15 17 18 20 21 21 23 23 22 19 17 16 15 17 19 19 19 19 18 17 16 16 18 18 17 17
3 2 3 5 5 6 5 7 4 7 12 11 6 9 11 11 13 17 17 18 18 19 21 19 16 13 10 8 9 11 12 13 12 12 13 13 14 16 17 19 21 22 23 24 23 21 18 17 16 16 18 19 19 19 18 15 14 16 17 18 19 19 19
4 5 6 6 7 10 10 14 13 11 13 14 11 11 14 15 16 18 17 17 17 18 19 19 16 12 11 10 10 11 12 12 12 12 12 13 14 15 17 19 21 23 24 24 22 20 18 17 16 17 18 18 18 17 15 13 14 16 18 18 18 19 19
4 5 6 6 10 12 10 15 18 15 13 13 15 15 16 17 17 16 15 16 16 18 20 18 14 12 12 12 11 11 12 11 10 11 12 12 13 14 16 17 20 22 24 24 23 20 18 17 16 17 17 17 17 15 13 13 14 16 18 18 18 18 18
3 3 5 5 9 12 10 8 13 14 11 11 14 14 15 17 16 14 14 14 16 18 18 15 13 13 12 11 10 11 11 9 9 10 11 11 11 12 13 15 17 20 22 24 23 20 18 17 17 17 17 16 15 14 13 14 15 16 18 19 19 18 18
1 5 9 10 11 10 8 5 7 9 9 11 11 9 12 15 13 12 13 14 16 18 16 13 12 12 10 9 9 8 7 6 5 6 7 8 9 11 12 13 15 17 19 20 20 18 17 17 18 18 17 15 14 14 13 14 15 16 17 19 20 20 19
4 5 7 9 8 7 6 6 7 8 11 13 10 8 11 14 14 13 14 14 14 15 14 12 11 10 9 8 6 5 4 3 4 4 4 5 7 8 9 11 12 13 15 16 16 15 15 16 18 18 17 15 14 13 13 14 15 15 17 18 20 20 19
4 4 5 6 4 5 7 8 8 10 12 12 11 12 14 15 16 17 17 15 13 12 11 10 8 7 6 5 4 4 4 4 4 4 3 4 6 7 8 9 10 11 13 14 14 14 14 15 17 17 16 15 14 14 14 15 15 16 16 18 19 20 19
6 10 14 13 8 9 12 11 11 14 15 14 15 16 16 17 18 18 18 17 14 12 10 8 6 5 4 4 4 4 4 4 4 4 5 6 8 9 10 10 10 11 12 13 13 13 14 15 16 17 16 15 14 15 15 16 17 17 18 19 19 19 20
9 17 25 21 15 17 19 16 15 18 18 18 18 18 17 17 16 14 14 12 11 10 9 7 6 5 5 5 5 5 6 6 7 7 8 8 8 9 10 10 11 11 12 12 13 13 14 15 16 17 17 17 17 17 18 19 20 19 19 21 21 20 22
13 23 30 27 22 20 18 16 18 20 19 19 18 18 17 15 13 11 10 9 7 7 7 7 7 6 5 6 6 7 7 8 8 8 9 8 8 8 9 10 10 11 12 12 13 14 14 15 17 18 19 20 20 20 21 21 20 20 21 23 24 25 27
Wind_Direction
61 114 158 96 77 144 138 104 155 205 165 117 118 172 89 70 90 257 272 270 299 321 290 305 3 2 193 186 186 186 192 196 198 202 207 209 210 209 209 210 210 209 208 211 212 215 228 239 246 256 268 277 292 310 315 311 311 313 313 314 319 321 322
32 94 110 69 44 108 130 159 186 175 132 94 100 120 22 46 119 270 317 281 293 345 307 303 350 87 179 186 181 181 186 191 197 203 206 209 210 211 212 212 211 211 211 213 214 219 232 243 247 255 263 276 299 314 312 310 312 313 311 314 321 323 323
275 60 92 63 24 39 105 155 147 120 137 132 72 110 133 104 199 285 315 308 270 208 226 276 274 203 195 193 182 179 185 191 198 203 206 209 211 212 213 212 211 212 212 214 216 222 234 240 244 250 261 284 306 313 310 310 311 309 311 317 323 325 324
277 32 73 159 20 29 59 88 58 40 129 155 158 141 153 156 157 260 305 329 282 226 215 223 229 213 187 178 188 194 194 195 199 202 205 208 210 212 213 211 211 212 212 215 218 226 238 241 242 248 266 293 308 310 307 307 306 307 313 319 325 326 323
213 163 197 185 170 126 89 79 16 2 94 127 149 107 103 130 142 173 235 302 271 251 208 200 225 219 185 183 193 198 199 199 201 203 205 207 210 212 212 210 210 211 211 215 220 228 236 237 239 247 271 298 305 306 305 303 303 307 313 319 324 324 320
183 235 264 208 175 162 148 160 180 159 135 126 112 3 310 84 129 166 163 231 267 259 204 209 228 208 188 196 195 197 203 202 203 205 206 208 210 212 212 209 209 209 210 215 221 227 231 233 236 247 275 296 300 302 302 300 301 305 312 319 322 320 316
210 259 283 216 153 137 123 128 152 141 131 123 126 197 247 130 79 132 127 213 267 261 219 229 243 215 200 202 198 200 206 205 205 206 207 209 212 212 211 208 206 206 209 217 223 226 228 230 235 252 277 291 295 298 298 299 302 305 312 318 319 313 309
303 306 324 23 60 89 103 70 121 137 138 132 142 175 178 149 162 147 113 257 269 277 277 273 259 227 205 202 203 205 208 208 209 208 208 210 211 211 209 205 202 205 211 219 222 223 225 228 237 260 280 288 292 293 294 298 303 307 312 316 313 306 304
346 342 350 350 344 44 134 164 111 120 110 110 116 114 116 171 209 157 145 237 255 271 317 333 281 218 198 206 209 208 210 211 209 208 209 210 209 207 203 199 200 205 212 218 219 220 222 226 242 266 280 288 291 292 292 297 304 308 311 311 307 302 303
176 203 244 250 247 222 181 114 123 129 118 129 143 110 113 221 233 148 161 225 261 285 310 326 291 226 212 216 212 212 215 213 209 208 208 208 206 203 198 196 199 205 211 216 217 219 219 226 248 268 282 291 294 292 292 297 303 306 307 306 303 302 303
182 183 209 221 156 141 190 157 144 164 137 126 116 107 145 190 168 179 217 210 260 292 286 276 256 229 224 222 211 212 215 212 210 209 207 205 203 199 195 196 200 206 211 215 217 217 218 229 248 267 287 294 294 293 293 297 300 302 304 303 301 301 301
197 180 195 214 121 147 187 167 152 176 156 121 116 155 198 153 130 261 253 199 209 264 260 248 240 225 226 228 216 213 212 208 208 206 202 201 198 194 194 197 201 207 211 214 215 215 217 230 245 266 288 291 291 294 295 296 297 298 300 299 298 300 300
202 195 307 351 109 139 173 167 167 164 161 164 176 207 198 153 173 249 241 181 204 244 253 247 235 217 218 222 219 218 214 207 203 197 194 194 193 191 193 197 203 208 210 213 214 213 218 229 244 271 286 287 290 295 295 296 296 296 295 293 296 301 304
81 266 286 264 151 130 159 200 196 168 169 189 201 220 204 180 218 256 227 193 231 249 246 249 252 240 228 224 220 217 213 205 198 192 191 191 190 191 195 199 205 208 210 213 213 213 219 230 253 275 281 284 290 294 295 296 297 296 291 287 292 301 307
349 313 211 176 159 169 191 252 264 196 178 198 213 237 203 186 252 272 246 225 260 261 243 251 263 243 214 212 214 211 207 202 194 189 190 190 190 192 196 201 206 208 210 212 213 215 220 235 262 273 278 283 288 292 294 293 296 297 291 287 287 294 304
280 293 147 118 19 84 167 305 280 238 208 193 205 208 184 179 214 248 241 241 259 264 251 254 256 215 193 201 206 202 201 198 193 191 190 190 190 193 197 203 206 208 209 211 212 215 222 241 261 271 278 281 284 291 293 292 294 296 293 291 288 287 299
257 283 25 36 19 35 301 279 233 202 192 200 223 250 219 203 173 174 218 233 239 262 272 241 237 211 205 213 209 202 199 195 194 194 192 190 191 194 200 205 207 207 208 210 211 213 222 243 261 273 277 278 285 291 292 290 290 292 296 295 289 285 292
249 284 18 38 345 235 248 247 191 165 173 189 202 241 237 221 191 194 241 254 259 265 234 220 224 214 216 224 220 214 206 197 193 193 193 191 191 196 204 208 207 206 208 209 209 211 223 243 259 270 270 274 285 284 282 284 287 295 300 297 292 288 287
200 332 53 76 238 230 244 271 245 201 201 182 191 243 256 235 224 241 262 264 265 257 233 240 256 244 240 247 235 220 211 203 197 193 192 191 193 200 206 206 204 206 206 205 206 209 223 241 253 260 264 272 277 273 274 279 287 298 301 297 294 291 286
148 92 110 192 240 258 284 298 271 183 223 187 195 285 282 243 212 207 235 252 261 259 246 255 272 260 252 271 247 221 210 206 200 194 190 190 197 205 206 204 203 204 202 203 207 214 224 237 244 250 260 264 264 268 270 272 283 295 295 296 296 293 290
152 148 194 238 290 305 306 291 219 170 190 188 172 247 274 252 204 183 208 253 244 208 226 225 186 153 121 353 264 221 209 205 200 194 191 194 203 207 206 206 207 203 201 206 211 216 225 235 238 243 253 252 255 263 265 268 284 292 291 296 300 297 294
112 109 222 296 291 269 258 250 244 241 214 170 142 151 272 274 223 199 204 234 202 167 155 157 146 126 92 352 261 215 206 202 196 193 196 201 206 208 207 209 206 200 203 211 215 220 228 235 236 236 241 246 252 260 264 270 284 289 289 297 303 301 297
110 131 191 218 221 238 240 242 252 249 183 157 117 61 289 273 225 206 204 201 187 170 161 159 145 117 114 268 241 202 193 192 191 193 199 202 205 208 208 209 208 208 212 216 219 224 229 234 237 234 237 243 249 256 264 271 279 285 291 298 300 297 292
160 158 201 228 238 247 241 247 253 197 164 155 116 317 271 253 210 202 202 196 189 178 166 156 146 148 179 247 228 193 187 190 192 196 200 201 204 207 207 209 213 215 220 221 221 224 229 236 239 235 237 242 247 256 264 268 275 286 294 296 291 288 285
174 175 215 260 266 243 244 255 227 161 146 150 197 229 240 223 198 201 206 203 192 180 169 164 174 187 173 94 184 183 184 189 191 196 201 203 206 211 213 215 217 218 223 226 227 231 236 241 240 237 238 242 247 257 262 266 278 291 295 287 280 281 281
158 173 204 279 291 249 226 221 183 150 141 198 227 216 217 206 198 200 206 204 192 181 179 182 187 179 140 120 159 174 181 188 191 198 206 209 211 213 215 220 224 227 230 231 234 237 238 237 239 240 241 243 249 255 259 266 283 295 289 277 275 275 273
142 130 178 245 283 253 183 145 133 162 192 227 219 192 184 196 201 199 197 198 193 187 188 189 183 169 151 145 164 178 186 195 201 206 210 212 215 215 217 223 227 231 234 236 238 239 237 236 238 240 241 244 248 252 257 271 289 293 282 274 273 271 269
138 139 198 201 238 262 207 174 195 222 222 233 222 181 177 186 196 195 191 193 196 194 192 187 178 178 179 171 175 184 189 197 203 204 205 211 217 221 226 231 232 235 239 241 241 240 237 237 239 241 242 244 246 250 261 278 291 290 285 279 273 270 271
176 190 224 244 280 293 258 235 246 256 243 239 226 201 196 192 189 188 185 185 190 192 190 184 177 180 183 178 181 187 187 190 195 198 204 214 221 227 232 235 237 240 243 245 244 240 236 236 239 241 241 241 243 252 267 282 287 287 288 284 276 275 276
279 254 249 275 299 302 277 243 248 267 271 240 215 208 205 190 178 176 173 173 178 181 183 183 180 179 180 179 181 183 183 187 197 206 216 224 230 235 239 241 245 247 247 246 244 240 237 235 236 238 238 239 246 259 273 281 281 283 287 286 283 283 283
334 273 260 301 308 302 303 270 247 258 262 226 202 199 192 177 167 167 170 173 179 181 183 187 185 179 178 177 178 182 190 203 214 221 230 238 243 249 254 257 258 257 254 250 246 243 239 236 237 240 239 241 252 269 279 280 279 280 284 287 287 288 290
245 245 268 301 311 301 297 274 241 237 215 190 183 184 179 171 164 166 173 178 181 180 180 183 180 172 167 167 172 179 192 210 226 237 249 257 259 263 267 268 268 266 262 256 252 249 244 240 243 244 242 247 262 277 282 280 278 278 280 284 287 291 295
296 280 289 304 314 310 286 251 240 224 196 185 182 181 181 178 172 168 169 171 174 175 174 172 169 163 159 161 167 178 200 235 260 266 268 268 270 276 280 283 283 277 267 260 257 255 253 250 249 246 245 254 270 280 283 280 277 276 277 280 285 291 295
302 268 281 288 288 290 273 249 228 208 196 194 191 181 180 181 177 172 167 161 159 162 162 160 161 162 164 173 193 215 232 251 261 263 273 288 293 298 301 299 293 283 274 269 266 264 262 257 251 247 248 259 273 280 280 279 277 277 278 279 283 289 293
254 271 292 294 274 263 266 251 217 197 193 196 194 187 182 179 176 176 173 164 156 154 155 158 168 178 184 195 208 218 229 240 250 261 274 281 283 284 287 289 289 286 282 278 275 272 268 259 252 248 251 259 269 274 274 275 275 275 277 278 280 285 290
267 300 313 311 289 274 272 251 212 194 192 192 191 186 178 172 168 170 174 170 165 167 170 171 178 186 194 203 211 220 232 243 252 255 255 256 262 269 274 280 286 287 283 280 278 274 269 262 256 253 254 259 265 269 271 272 273 275 279 282 283 287 291
298 314 320 315 300 286 271 235 202 193 192 189 182 176 172 170 167 167 172 175 174 179 183 181 183 193 204 214 225 234 239 244 246 241 237 242 250 261 270 277 281 283 281 277 276 273 269 264 260 258 260 264 268 271 273 275 277 280 283 287 291 291 287